Location: ??
(34.7707°N, 135.6540°E)
Time: 19:54:24
(UTC+00:00)

N. Korean satellite - Visible Passes

Search period start: 24 September 2021 00:00
Search period end: 04 October 2021 00:00
Orbit: 448 x 498 km, 97.3° (Epoch: 23 September)

Date Brightness Start Highest point End Pass type
(mag) Time Alt. Az. Time Alt. Az. Time Alt. Az.
24 Sep 8.4 19:44:36 10° NNE 19:47:53 34° E 19:51:12 10° SSE visible
25 Sep 9.8 19:17:55 10° ENE 19:20:01 15° E 19:22:05 10° SE visible
26 Sep 6.6 20:22:00 10° N 20:25:32 63° WNW 20:29:05 10° SSW visible
27 Sep 7.7 19:54:16 10° NNE 19:57:45 48° E 20:01:15 10° S visible
28 Sep 9.4 19:27:09 10° NE 19:29:52 20° E 19:32:35 10° SE visible
30 Sep 6.9 20:03:55 10° NNE 20:07:30 69° E 20:11:08 10° S visible
01 Oct 8.9 19:36:31 10° NE 19:39:38 27° E 19:42:46 10° SSE visible
02 Oct 10.0 19:10:18 10° ENE 19:11:39 12° E 19:13:00 10° ESE visible
03 Oct 6.5 20:13:32 10° N 20:17:10 84° W 20:20:49 10° SSW visible
